Regional Weather Roundup
Issued by NWS

Home | Current Version | Previous Version | Text Only | Print | Product List | Glossary On
Versions: 1 2 3 4 5 6 7 8 9 10 11 12 13 14 15 16 17 18 19 20 21 22 23 24 25 26 27 28 29 30 31 32 33 34 35 36 37 38 39 40 41 42 43 44 45 46 47 48 49 50
000
ASUS43 KMKX 222300
RWRWI

WISCONSIN REGIONAL WEATHER ROUNDUP
NATIONAL WEATHER SERVICE MILWAUKEE/SULLIVAN WI
500 PM CST MON JAN 22 2018

NOTE: "FAIR" INDICATES FEW OR NO CLOUDS BELOW 12,000 FEET WITH NO
SIGNIFICANT WEATHER AND/OR OBSTRUCTIONS TO VISIBILITY.

WIZ001-002-006>008-014>016-023>028-230000-
NORTHWEST WISCONSIN

CITY           SKY/WX    TMP DP  RH WIND       PRES   REMARKS
SUPERIOR ARPT  CLOUDY    28  23  82 NE15G23   29.87R WCI  16
ASHLAND        SNOW      25  23  92 NE25G40   29.82S VSB 1/2 WCI   9
HAYWARD        LGT SNOW  27  21  78 N17G25    29.77R WCI  14
SIREN          LGT SNOW  26  23  89 N12G20    29.79R WCI  15
CUMBERLAND     CLOUDY    27  25  93 N15G22    29.70S WCI  15
RICE LAKE      CLOUDY    28  27  97 N21       29.70S WCI  14
CHETEK         HVY SNOW  29  28  99 MISG      29.67F VSB<1/4
LADYSMITH      HVY SNOW  29  28  96 N17       29.68F VSB 1/4 WCI  17
EAU CLAIRE     NOT AVBL
MENOMONIE      LGT SNOW  31  29  92 N17G24    29.65R WCI  20
NEW RICHMOND   CLOUDY    28  27  96 N20G25    29.69R WCI  14
OSCEOLA        CLOUDY    28  28 100 N15G23    29.75R WCI  16
$$

WIZ003>005-009-010-017-018-230000-
NORTH CENTRAL WISCONSIN

CITY           SKY/WX    TMP DP  RH WIND       PRES   REMARKS
MANITOWISH WTR SNOW      24  24 100 NE14G28   29.65F VSB 1/2 WCI  12
ARBOR VITAE    SNOW      27  26  93 NE14G26   29.61F VSB 1/2 WCI  16
WOODRUFF       SNOW      27  26  93 NE14G26   29.61F VSB 1/2 WCI  16
RHINELANDER    LGT SNOW  29  27  92 E13G18    29.68R FOG     WCI  19
EAGLE RIVER    LGT SNOW  27  26  96 NE24G32   29.61F VSB 3/4 WCI  12
LAND O LAKES   SNOW      26  24  91 NE17G23   29.67F VSB 1/2 WCI  13
PHILLIPS       SNOW      26  26  97 N10       29.70R VSB 1/2 WCI  17
TOMAHAWK       LGT SNOW  29  27  91 CALM      29.68R VSB 1
MEDFORD        MIX PCPN  30  29  96 NE8       29.62S VSB 1/2 WCI  22
MERRILL        LGT SNOW  31  31 100 NE8       29.64F VSB 3/4 WCI  23
$$

WIZ029-030-035-036-043>047-230000-
CENTRAL WISCONSIN

CITY           SKY/WX    TMP DP  RH WIND       PRES   REMARKS
WAUSAU         LGT SNOW  31  30  96 N9        29.58F VSB 3/4 WCI  23
MOSINEE        LGT SNOW  30  30 100 NE20      29.57F VSB 1   WCI  18
MARSHFIELD     LGT SNOW  32  31  96 NE20G28   29.53F VSB 3/4 WCI  20
STEVENS POINT  LGT SNOW  30  30 100 E9        29.57S VSB 1   WCI  21
WAUPACA        CLOUDY    33  31  92 NE9G17    29.57R WCI  25
WAUTOMA        CLOUDY    32  30  92 NE15      29.53F WCI  22
WISC RAPIDS    NOT AVBL
CAMP DOUGLAS   CLOUDY    34  32  93 NE9       29.54S WCI  26
$$

WIZ011>013-019>022-031-037>040-048>050-230000-
NORTHEAST WISCONSIN

CITY           SKY/WX    TMP DP  RH WIND       PRES   REMARKS
ANTIGO         SNOW      29  29  98 NE15G21   29.63R VSB 1/4 WCI  18
SHAWANO        LGT SNOW  32  30  92 N13       29.62R VSB 1   WCI  22
OCONTO         CLOUDY    31  29  94 NE10G16   29.60R WCI  22
STURGEON BAY   LGT SNOW  32  31  96 NE16G24   29.58R FOG     WCI  21
GREEN BAY      CLOUDY    32  31  96 N22       29.56R WCI  19
MANITOWOC      CLOUDY    36  35  96 N9G17     29.52R WCI  29
APPLETON       CLOUDY    32  32 100 NE13G20   29.53R WCI  22
CLINTONVILLE   LGT SNOW  32  30  93 NE14G24   29.58S WCI  22
OSHKOSH        CLOUDY    33  32  96 N18       29.52S WCI  22
$$

WIZ032>034-041-042-053>061-230000-
SOUTHWEST WISCONSIN

CITY           SKY/WX    TMP DP  RH WIND       PRES   REMARKS
LA CROSSE      CLOUDY    35  35 100 N8        29.56R WCI  29
SPARTA         CLOUDY    32  32  99 NE7       29.56R WCI  26
VIROQUA        CLOUDY    33  33 100 NE12G17   29.51R WCI  25
BOSCOBEL       CLOUDY    38  32  79 NE6       29.49F WCI  33
PRAIRIE DU CHI CLOUDY    37  33  86 N5        29.49R WCI  34
PLATTEVILLE    CLOUDY    38  38 100 N8        29.47R WCI  32
$$

WIZ056-057-062-063-064-067-068-230000-
SOUTH CENTRAL WISCONSIN

CITY           SKY/WX    TMP DP  RH WIND       PRES   REMARKS
REEDSBURG      CLOUDY    33  33 100 NE8       29.51R WCI  27
BARABOO/DELLS  CLOUDY    33  32  96 NE12      29.50R WCI  24
LONE ROCK      NOT AVBL
MINERAL POINT  CLOUDY    37  37 100 NE13      29.46R WCI  29
MADISON        LGT RAIN  36  34  92 NE14G21   29.48R FOG     WCI  27
MIDDLETON      CLOUDY    37  37 100 NE14      29.48R WCI  28
WATERTOWN      CLOUDY    37  37 100 N8        29.46R FOG     WCI  30
MONROE         FOG       36  36 100 N10       29.44R VSB 3/4 WCI  28
JANESVILLE     FOG       41  41 100 NW20G26   29.44R VSB 1/2
$$

WIZ051-052-058>065-066-070>072-230000-
SOUTHEAST WISCONSIN

CITY           SKY/WX    TMP DP  RH WIND       PRES   REMARKS
MILWAUKEE      FOG       39  38  96 NE7       29.46S VSB 1/2 WCI  34
WAUKESHA       FOG       37  37 100 N3        29.46S VSB 1/2
MILWAUKEE/TIMM CLOUDY    37  36  93 N5        29.47S WCI  34
RACINE         FOG       37  37 100 N7        29.48R VSB 1/4 WCI  32
BURLINGTON     FAIR      46  44  95 E3        29.43F
KENOSHA        MOCLDY    46  43  89 E5        29.44S
FOND DU LAC    CLOUDY    35  32  88 N14       29.51R WCI  26
SHEBOYGAN      CLOUDY    36  36 100 N12       29.49R FOG     WCI  28
WEST BEND      CLOUDY    36  36 100 NW6       29.48R FOG     WCI  31
JUNEAU         CLOUDY    35  34  96 N13       29.48S WCI  26
$$

LSZ147-162-230000-
LAKE SUPERIOR

STATION/POSITION TIME  TEMP    WIND        PRES    WAVE
                       AIR SEA DIR/SP/G            HT/PER
                 (UTC) (F)     (DEG/KT/KT) (MB)    (FT/S)
DEVILS ISLAND    2200   24      40/ 28/ 30 1012.4F
SAXON HARBOR     2230   28      50/ 30/ 37 1008.8S
$$

LMZ867-665-643>646-230000-
LAKE MICHIGAN

STATION/POSITION TIME  TEMP    WIND        PRES    WAVE
                       AIR SEA DIR/SP/G            HT/PER
                 (UTC) (F)     (DEG/KT/KT) (MB)    (FT/S)
NORTHPORT PIER   2240   31      50/  7/ 16 1002.7F
KEWAUNEE LAKESHO 2230   35      30/ 13/ 20  999.8R
SHEBOYGAN LAKESH 2200   36     340/ 14/ 16  998.5R
PORT WASHINGTON  2240   38     330/  7/ 10  999.3R
MILWAUKEE LAKESH 2230   37      40/  5/  6   N/A
KENOSHA   LAKESH 2200   40     170/ 10/ 12  997.6
$$

TC  - TEMPERATURE IN CELSIUS
VSB - VISIBILITY IN STATUTE MILES
WCI - WIND CHILL INDEX
HX  - HEAT INDEX





USA.gov is the U.S. government's official web portal to all federal, state and local government web resources and services.